Weather History for Sable Island, NS

Change the Weather History Date:

Thursday, January 16, 2014

  Actual Average Record
Temperature  
Mean Temperature 44 °F -  
Max Temperature 50 °F 34 °F 51 °F (1999)
Min Temperature 38 °F 24 °F 6 °F (2004)
Degree Days  
Heating Degree Days 21    
Moisture  
Dew Point 42 °F    
Average Humidity 97    
Maximum Humidity 100    
Minimum Humidity 93    
Precipitation  
Precipitation 0.71 in - - ()
Sea Level Pressure  
Sea Level Pressure 29.91 in    
Wind  
Wind Speed 8 mph ()    
Max Wind Speed 30 mph    
Max Gust Speed 38 mph    
Visibility 1.0 miles    
Events Rain    
Averages and records for this station are not official NWS values.
T = Trace of Precipitation, MM = Missing Value Source: Averaged Metar Reports

Daily Weather History Graph

Daily Weather History Graph

Search for Another Location

Airport:

Trip Planner

Search our weather history database for the weather conditions in past years. The results will help you decide how hot, cold, wet, or windy it might be!

Date:

Astronomy

Jan. 16, 2014 Rise Set
Actual Time 7:30 AM AST 4:49 PM AST
Civil Twilight 6:58 AM AST 5:21 PM AST
Nautical Twilight 6:23 AM AST 5:56 PM AST
Astronomical Twilight 5:48 AM AST 6:31 PM AST
Moon 5:39 PM AST (1/16) 7:18 AM AST (1/16)
Length of Visible Light 10h 22m
Length of Day
9h 18m
Full, 100% of the Moon is Illuminated
Jan 16
Full
Jan 24
Last Quarter
Jan 30
New
Feb 6
First Quarter
Feb 14
Full

Hourly Weather History & Observations

Time (AST) Temp. Windchill Dew Point Humidity Pressure Visibility Wind Dir Wind Speed Gust Speed Precip Events Conditions
12:00 AM 39.2 °F - 39.2 °F 100% 30.03 in 2.5 mi Calm Calm - N/A Rain Light Rain
12:29 AM 39.2 °F 32.5 °F 39.2 °F 100% 30.01 in 1.2 mi SE 10.4 mph - N/A Rain Light Rain
1:00 AM 39.2 °F 35.9 °F 39.2 °F 100% 30.01 in 1.2 mi SSE 4.6 mph - N/A Rain Light Rain
1:06 AM 41.0 °F 38.0 °F 39.2 °F 93% 30.00 in 0.8 mi SE 4.6 mph - N/A Rain Light Rain
1:18 AM 41.0 °F 35.2 °F 39.2 °F 93% 29.99 in 0.8 mi SE 9.2 mph - N/A   Overcast
1:21 AM 41.0 °F 35.8 °F 39.2 °F 93% 29.99 in 0.8 mi SE 8.1 mph - N/A Rain Light Rain
1:29 AM 41.0 °F 38.0 °F 41.0 °F 100% 29.99 in 0.6 mi SE 4.6 mph - N/A Rain Light Rain
1:42 AM 41.0 °F 38.0 °F 41.0 °F 100% 29.99 in 0.5 mi NNW 4.6 mph - N/A   Overcast
1:51 AM 41.0 °F 38.0 °F 41.0 °F 100% 30.00 in 0.6 mi NW 4.6 mph - N/A Rain Light Rain
2:00 AM 41 °F - 41 °F 98% 30.01 in 1 mi North 3.5 mph - - Rain Light Rain
2:00 AM 41.0 °F 38.0 °F 41.0 °F 100% 30.01 in 0.6 mi NNW 4.6 mph - N/A Rain Light Rain
2:16 AM 41.0 °F 38.0 °F 41.0 °F 100% 30.01 in 0.4 mi NW 4.6 mph - N/A Rain Light Rain
3:00 AM 41.0 °F - 39.2 °F 93% 30.00 in 0.4 mi Calm Calm - N/A Rain Light Rain
3:11 AM 39.2 °F - 39.2 °F 100% 29.99 in 0.5 mi NNE 2.3 mph - N/A Rain Light Rain
3:12 AM 39.2 °F - 39.2 °F 100% 29.99 in 0.4 mi NNE 2.3 mph - N/A Rain Light Rain
3:14 AM 39.2 °F - 39.2 °F 100% 29.99 in 0.4 mi Calm Calm - N/A   Overcast
3:19 AM 39.2 °F - 39.2 °F 100% 29.97 in 0.4 mi NE 2.3 mph - N/A Rain Light Rain
3:50 AM 39.2 °F 35.9 °F 39.2 °F 100% 29.96 in 0.2 mi ENE 4.6 mph - N/A   Overcast
3:55 AM 41.0 °F - 39.2 °F 93% 29.97 in 0.2 mi East 2.3 mph - N/A Rain Light Rain
4:00 AM 41.0 °F 38.0 °F 39.2 °F 93% 29.98 in 0.2 mi East 4.6 mph - N/A Rain Light Rain
4:27 AM 39.2 °F 35.9 °F 39.2 °F 100% 29.96 in 0.6 mi North 4.6 mph - N/A Rain Light Rain
4:41 AM 39.2 °F 35.0 °F 39.2 °F 100% 29.97 in 0.8 mi NNW 5.8 mph - N/A Rain Light Rain
4:52 AM 39.2 °F 37.0 °F 39.2 °F 100% 29.97 in 0.8 mi North 3.5 mph - N/A Rain Light Rain
4:55 AM 39.2 °F 35.9 °F 39.2 °F 100% 29.96 in 0.8 mi North 4.6 mph - N/A Rain Light Rain
4:59 AM 39.2 °F 35.9 °F 39.2 °F 100% 29.96 in 1.2 mi North 4.6 mph - N/A Rain Light Rain
5:00 AM 40 °F - 39 °F 96% 29.96 in 1 mi North 4.6 mph - - Rain Light Rain
5:00 AM 39.2 °F 35.9 °F 39.2 °F 100% 29.96 in 1.2 mi North 4.6 mph - N/A Rain Light Rain
5:02 AM 39.2 °F 35.9 °F 39.2 °F 100% 29.96 in 1.2 mi NNE 4.6 mph - N/A Rain Light Rain
5:07 AM 41.0 °F 38.0 °F 39.2 °F 93% 29.95 in 1.2 mi NE 4.6 mph - N/A Rain Light Rain
5:13 AM 41.0 °F 38.0 °F 39.2 °F 93% 29.96 in 1.2 mi NNE 4.6 mph - N/A Rain Light Rain
5:15 AM 41.0 °F 37.1 °F 39.2 °F 93% 29.96 in 1.2 mi NNE 5.8 mph - N/A Rain Light Rain
5:21 AM 39.2 °F 33.0 °F 39.2 °F 100% 29.96 in 2.2 mi North 9.2 mph - N/A Rain Light Rain
5:55 AM 39.2 °F 34.2 °F 39.2 °F 100% 29.97 in 2.5 mi North 6.9 mph - N/A Rain Light Rain
5:57 AM 39.2 °F 34.2 °F 39.2 °F 100% 29.97 in 3.0 mi North 6.9 mph - N/A Rain Light Rain
6:00 AM 39.2 °F 33.6 °F 39.2 °F 100% 29.97 in 3.0 mi North 8.1 mph - N/A Rain Light Rain
6:27 AM 39.2 °F 34.2 °F 39.2 °F 100% 29.97 in 3.0 mi NNE 6.9 mph - N/A Rain Light Rain
6:31 AM 39.2 °F 35.0 °F 39.2 °F 100% 29.98 in 2.5 mi North 5.8 mph - N/A Rain Light Rain
6:32 AM 39.2 °F 35.0 °F 39.2 °F 100% 29.97 in 2.2 mi NNE 5.8 mph - N/A Rain Light Rain
6:35 AM 39.2 °F 35.0 °F 39.2 °F 100% 29.98 in 2.5 mi NNE 5.8 mph - N/A   Light Drizzle
6:41 AM 39.2 °F 35.9 °F 39.2 °F 100% 29.98 in 2.5 mi NNE 4.6 mph - N/A   Overcast
6:42 AM 39.2 °F 35.9 °F 39.2 °F 100% 29.98 in 2.5 mi NNE 4.6 mph - N/A   Overcast
6:46 AM 39.2 °F 35.0 °F 39.2 °F 100% 29.98 in 5.0 mi NNE 5.8 mph - N/A   Overcast
6:53 AM 39.2 °F 35.9 °F 39.2 °F 100% 29.99 in 5.0 mi North 4.6 mph - N/A   Overcast
7:00 AM 39.2 °F 37.0 °F 39.2 °F 100% 29.99 in 5.0 mi NNE 3.5 mph - N/A   Overcast
7:05 AM 39.2 °F 35.9 °F 39.2 °F 100% 29.99 in 5.0 mi NNE 4.6 mph - N/A   Overcast
7:19 AM 39.2 °F 33.6 °F 39.2 °F 100% 29.96 in 3.0 mi East 8.1 mph - N/A Rain Light Rain
7:55 AM 41.0 °F 33.9 °F 39.2 °F 93% 29.94 in 1.8 mi ESE 12.7 mph - N/A Rain Light Rain
7:56 AM 41.0 °F 33.5 °F 39.2 °F 93% 29.93 in 1.2 mi ESE 13.8 mph - N/A Rain Light Rain
7:58 AM 41.0 °F 33.5 °F 39.2 °F 93% 29.93 in 0.8 mi ESE 13.8 mph - N/A Rain Light Rain
7:59 AM 41.0 °F 33.5 °F 39.2 °F 93% 29.93 in 0.8 mi ESE 13.8 mph - N/A   Overcast
8:00 AM 40 °F - 39 °F 95% 29.93 in 1 mi ESE 13.8 mph - - Rain Light Rain
8:00 AM 41.0 °F 33.5 °F 39.2 °F 93% 29.93 in 0.6 mi ESE 13.8 mph - N/A   Overcast
8:10 AM 41.0 °F 34.3 °F 39.2 °F 93% 29.94 in 1.0 mi ESE 11.5 mph 17.3 mph N/A   Overcast
8:18 AM 41.0 °F 34.7 °F 39.2 °F 93% 29.94 in 1.2 mi ESE 10.4 mph - N/A   Mostly Cloudy
8:22 AM 41.0 °F 35.2 °F 39.2 °F 93% 29.95 in 1.2 mi ESE 9.2 mph - N/A   Overcast
8:43 AM 41.0 °F 34.7 °F 41.0 °F 100% 29.95 in 0.8 mi ESE 10.4 mph - N/A   Overcast
8:48 AM 41.0 °F 35.2 °F 41.0 °F 100% 29.96 in 0.8 mi ESE 9.2 mph - N/A Rain Light Rain
9:00 AM 41.0 °F 38.0 °F 41.0 °F 100% 29.97 in 0.8 mi East 4.6 mph - N/A Rain Light Rain
9:11 AM 41.0 °F 35.8 °F 41.0 °F 100% 29.98 in 0.8 mi SE 8.1 mph - N/A Rain Light Rain
9:12 AM 41.0 °F 36.4 °F 41.0 °F 100% 29.98 in 1.2 mi SE 6.9 mph - N/A Rain Light Rain
9:51 AM 42.8 °F 36.6 °F 42.8 °F 100% 29.96 in 2.0 mi SE 11.5 mph - N/A Rain Light Rain
9:56 AM 42.8 °F 36.2 °F 42.8 °F 100% 29.96 in 1.8 mi SE 12.7 mph - N/A   Partly Cloudy
10:00 AM 42.8 °F 35.8 °F 42.8 °F 100% 29.96 in 1.8 mi SE 13.8 mph - N/A   Partly Cloudy
10:19 AM 42.8 °F 36.2 °F 42.8 °F 100% 29.96 in 1.5 mi SE 12.7 mph - N/A Rain Light Rain
10:20 AM 42.8 °F 36.6 °F 42.8 °F 100% 29.96 in 1.2 mi SE 11.5 mph - N/A Rain Light Rain
10:22 AM 42.8 °F 36.2 °F 42.8 °F 100% 29.96 in 1.2 mi SE 12.7 mph - N/A Rain Light Rain
10:33 AM 42.8 °F 36.2 °F 41.0 °F 93% 29.96 in 1.2 mi SE 12.7 mph - N/A Rain Light Rain
10:38 AM 42.8 °F 35.8 °F 41.0 °F 93% 29.97 in 1.2 mi SE 13.8 mph - N/A   Scattered Clouds
10:45 AM 42.8 °F 36.2 °F 41.0 °F 93% 29.96 in 1.6 mi SE 12.7 mph - N/A   Partly Cloudy
11:00 AM 42 °F - 41 °F 96% 29.97 in 2 mi SE 11.5 mph - -   Clear
11:00 AM 42.8 °F 36.6 °F 41.0 °F 93% 29.97 in 2.0 mi SE 11.5 mph - N/A   Scattered Clouds
11:07 AM 42.8 °F 36.6 °F 41.0 °F 93% 29.96 in 2.0 mi SE 11.5 mph - N/A Rain Light Rain
11:08 AM 42.8 °F 36.2 °F 41.0 °F 93% 29.96 in 2.0 mi SE 12.7 mph - N/A Rain Light Rain
11:17 AM 42.8 °F 36.6 °F 41.0 °F 93% 29.96 in 1.5 mi SE 11.5 mph - N/A Rain Light Rain
11:27 AM 42.8 °F 37.0 °F 41.0 °F 93% 29.96 in 1.2 mi SE 10.4 mph - N/A Rain Light Rain
11:41 AM 42.8 °F 37.5 °F 41.0 °F 93% 29.95 in 0.8 mi SE 9.2 mph - N/A Rain Light Rain
11:51 AM 42.8 °F 36.2 °F 42.8 °F 100% 29.94 in 0.6 mi ESE 12.7 mph - N/A Rain Light Rain
12:00 PM 42.8 °F 36.2 °F 41.0 °F 93% 29.94 in 0.6 mi ESE 12.7 mph - N/A Rain Light Rain
12:28 PM 42.8 °F 37.5 °F 42.8 °F 100% 29.92 in 0.8 mi SE 9.2 mph - N/A Rain Light Rain
12:29 PM 42.8 °F 37.0 °F 42.8 °F 100% 29.91 in 0.6 mi SE 10.4 mph - N/A Rain Light Rain
12:42 PM 42.8 °F 37.5 °F 42.8 °F 100% 29.90 in 0.4 mi SE 9.2 mph - N/A Rain Light Rain
1:00 PM 42.8 °F 36.6 °F 42.8 °F 100% 29.88 in 0.2 mi ESE 11.5 mph - N/A Rain Light Rain
1:11 PM 42.8 °F 38.0 °F 42.8 °F 100% 29.87 in 0.1 mi SE 8.1 mph - N/A Rain Light Rain
1:24 PM 44.6 °F 37.8 °F 44.6 °F 100% 29.86 in 0.1 mi ESE 15.0 mph - N/A   Overcast
1:27 PM 44.6 °F 38.4 °F 42.8 °F 93% 29.86 in 0.1 mi SE 12.7 mph - N/A Rain Light Rain
1:40 PM 44.6 °F 36.9 °F 44.6 °F 100% 29.85 in 0.4 mi SE 18.4 mph - N/A Rain Light Rain
2:00 PM 45 °F - 44 °F 96% 29.86 in 0 mi SE 13.8 mph - - Rain Light Rain
2:00 PM 44.6 °F 37.8 °F 44.6 °F 100% 29.86 in 0.5 mi SE 15.0 mph - N/A Rain Light Rain
2:23 PM 46.4 °F 40.1 °F 44.6 °F 93% 29.84 in 0.4 mi SE 15.0 mph - N/A Rain Rain
3:00 PM 46.4 °F 38.3 °F 46.4 °F 100% 29.84 in 0.2 mi SE 23.0 mph - N/A Rain Light Rain
3:20 PM 46.4 °F 38.7 °F 46.4 °F 100% 29.83 in 0.2 mi SSE 20.7 mph - N/A   Overcast
3:31 PM 48.2 °F - 46.4 °F 93% 29.82 in 0.2 mi South 20.7 mph - N/A Rain Light Rain
3:44 PM 46.4 °F 38.3 °F 46.4 °F 100% 29.82 in 0.2 mi South 23.0 mph - N/A   Overcast
4:00 PM 50.0 °F - 48.2 °F 94% 29.83 in 0.2 mi South 25.3 mph 31.1 mph N/A   Overcast
4:37 PM 48.2 °F - 46.4 °F 93% 29.81 in 0.2 mi South 24.2 mph 29.9 mph N/A Rain Light Rain
4:54 PM 48.2 °F - 46.4 °F 93% 29.81 in 0.2 mi South 25.3 mph - N/A   Overcast
5:00 PM 47 °F - 47 °F 99% 29.81 in 0 mi South 24.2 mph - -   Clear
5:00 PM 48.2 °F - 46.4 °F 93% 29.81 in 0.2 mi South 24.2 mph 29.9 mph N/A   Overcast
5:21 PM 46.4 °F 39.0 °F 46.4 °F 100% 29.85 in 0.2 mi WSW 19.6 mph 27.6 mph N/A   Overcast
5:25 PM 48.2 °F - 48.2 °F 100% 29.85 in 0.2 mi WSW 29.9 mph 38.0 mph N/A Rain Light Rain
5:35 PM 48.2 °F - 48.2 °F 100% 29.84 in 0.8 mi SSW 23.0 mph 31.1 mph N/A Rain Light Rain
5:36 PM 48.2 °F - 48.2 °F 100% 29.84 in 0.8 mi SSW 25.3 mph - N/A Rain Light Rain
5:46 PM 46.4 °F 38.7 °F 46.4 °F 100% 29.84 in 1.0 mi SSW 20.7 mph 27.6 mph N/A Rain Light Rain
5:48 PM 48.2 °F - 46.4 °F 93% 29.84 in 0.8 mi SSW 20.7 mph - N/A Rain Light Rain
6:00 PM 48.2 °F - 46.4 °F 93% 29.84 in 0.8 mi SSW 23.0 mph - N/A Rain Light Rain
6:06 PM 48.2 °F - 48.2 °F 100% 29.83 in 0.6 mi SSW 25.3 mph - N/A Rain Light Rain
6:07 PM 48.2 °F - 48.2 °F 100% 29.83 in 0.6 mi SSW 24.2 mph - N/A   Overcast
6:13 PM 48.2 °F - 48.2 °F 100% 29.83 in 0.4 mi SSW 23.0 mph - N/A   Overcast
6:43 PM 46.4 °F 39.5 °F 46.4 °F 100% 29.84 in 0.1 mi SSW 17.3 mph - N/A   Overcast
7:00 PM 44.6 °F 38.4 °F 44.6 °F 100% 29.83 in 0.1 mi SSW 12.7 mph - N/A   Overcast
7:45 PM 42.8 °F 38.0 °F 42.8 °F 100% 29.83 in 0.1 mi SSW 8.1 mph - N/A Rain Light Rain
8:00 PM 43 °F - 43 °F 99% 29.83 in 0 mi South 9.2 mph - - Rain Light Rain
8:00 PM 42.8 °F 37.5 °F 42.8 °F 100% 29.83 in 0.1 mi South 9.2 mph - N/A Rain Light Rain
8:12 PM 42.8 °F 37.5 °F 42.8 °F 100% 29.84 in 0.1 mi SSW 9.2 mph - N/A   Overcast
8:13 PM 42.8 °F 37.5 °F 42.8 °F 100% 29.84 in 0.1 mi SSW 9.2 mph - N/A Rain Light Rain
8:56 PM 42.8 °F 38.6 °F 41.0 °F 93% 29.82 in 0.1 mi South 6.9 mph - N/A   Overcast
8:58 PM 42.8 °F 38.6 °F 41.0 °F 93% 29.81 in 0.1 mi South 6.9 mph - N/A Rain Light Rain
9:00 PM 42.8 °F 38.6 °F 41.0 °F 93% 29.82 in 0.1 mi South 6.9 mph - N/A Rain Light Rain
9:12 PM 42.8 °F 38.6 °F 41.0 °F 93% 29.82 in 0.1 mi South 6.9 mph - N/A   Overcast
9:16 PM 42.8 °F 38.0 °F 41.0 °F 93% 29.81 in 0.1 mi South 8.1 mph - N/A Rain Light Rain
9:35 PM 42.8 °F 37.0 °F 41.0 °F 93% 29.80 in 0.1 mi South 10.4 mph - N/A   Overcast
10:00 PM 41.0 °F 34.3 °F 41.0 °F 100% 29.81 in 0.1 mi South 11.5 mph - N/A   Overcast
10:07 PM 41.0 °F 34.3 °F 41.0 °F 100% 29.81 in 0.1 mi South 11.5 mph - N/A Rain Light Rain
10:33 PM 41.0 °F 34.7 °F 41.0 °F 100% 29.78 in 0.4 mi South 10.4 mph - N/A   Overcast
10:49 PM 41.0 °F 33.5 °F 41.0 °F 100% 29.78 in 0.2 mi South 13.8 mph - N/A Rain Light Rain
11:00 PM 42 °F - 42 °F 100% 29.78 in 0 mi South 13.8 mph - - Rain Light Rain
11:00 PM 42.8 °F 36.2 °F 42.8 °F 100% 29.78 in 0.2 mi South 12.7 mph - N/A Rain Light Rain
11:10 PM 42.8 °F 36.6 °F 41.0 °F 93% 29.78 in 0.1 mi South 11.5 mph - N/A Rain Light Rain
11:28 PM 42.8 °F 36.6 °F 41.0 °F 93% 29.78 in 0.2 mi South 11.5 mph - N/A Rain Light Rain